This is the latest recevied weather packets stored in our database for station/object DL8BGD. If no packets are shown the sender has not sent any weather packets the latest 10 day(s).
| Time | Temp. | Humidity | Pressure | Rain* | Wind** | Luminosity | Snow |
|---|---|---|---|---|---|---|---|
| 1788012745 | 23.33° C | 44% | 1020.7 hPa | 0 mm | - | - | - |
| 1788012145 | 23.33° C | 42% | 1021 hPa | 0 mm | - | - | - |
| 1788011545 | 23.33° C | 46% | 1021.1 hPa | 0 mm | - | - | - |
| 1788010944 | 22.78° C | 45% | 1021.1 hPa | 0 mm | - | - | - |
| 1788010344 | 22.22° C | 46% | 1021.1 hPa | 0 mm | - | - | - |
| 1788009743 | 22.22° C | 44% | 1021.2 hPa | 0 mm | - | - | - |
| 1788009146 | 22.78° C | 44% | 1021.3 hPa | 0 mm | - | - | - |
| 1788008543 | 23.33° C | 45% | 1021.3 hPa | 0 mm | - | - | - |
| 1788007942 | 23.33° C | 44% | 1021.3 hPa | 0 mm | - | - | - |
| 1788007342 | 23.33° C | 43% | 1021.5 hPa | 0 mm | - | - | - |
| 1788006742 | 23.33° C | 44% | 1021.3 hPa | 0 mm | - | - | - |
| 1788006141 | 23.33° C | 46% | 1021.3 hPa | 0 mm | - | - | - |
| 1788005541 | 23.33° C | 43% | 1021.5 hPa | 0 mm | - | - | - |
| 1788004940 | 23.33° C | 48% | 1021.6 hPa | 0 mm | - | - | - |
| 1788004345 | 23.33° C | 49% | 1021.6 hPa | 0 mm | - | - | - |
| 1788003745 | 23.33° C | 45% | 1021.6 hPa | 0 mm | - | - | - |
| 1788003139 | 22.78° C | 42% | 1021.8 hPa | 0 mm | - | - | - |
| 1788002539 | 23.89° C | 44% | 1021.9 hPa | 0 mm | - | - | - |
| 1788001938 | 23.89° C | 47% | 1021.9 hPa | 0 mm | - | - | - |
| 1788001337 | 23.89° C | 46% | 1022 hPa | 0 mm | - | - | - |
| 1788000737 | 23.89° C | 45% | 1022 hPa | 0 mm | - | - | - |
| 1788000136 | 23.89° C | 47% | 1022.1 hPa | 0 mm | - | - | - |
| 1787999536 | 24.44° C | 43% | 1022.1 hPa | 0 mm | - | - | - |
| 1787998936 | 24.44° C | 43% | 1022.2 hPa | 0 mm | - | - | - |
| 1787998335 | 24.44° C | 46% | 1022.2 hPa | 0 mm | - | - | - |
* Rain since midnight (hover to see other rain measurements)
** Current wind speed in m/s (hover to see current wind gust speed)